Saint Bonnet de Bellac- Haute Vienne - France
Donnes mto: mercredi, 09/11/2011
Date Horaire Temp. E. Hum. E. P.atmo. Pluie Vent Direction Direction Ensoleilleme Solaire P. de rose Temp au vent Rafales
09/11/2011 00:00 8,6 C 91 % 1015,1 hPa 0,0 mm 0,0 km/h (0 Bft) S 180 0 min 0 W/m 7,2 C 8,6 C 0,0 km/h (0 Bft)
09/11/2011 00:05 8,6 C 91 % 1015,0 hPa 0,0 mm 0,0 km/h (0 Bft) S 180 0 min 0 W/m 7,2 C 8,6 C 0,0 km/h (0 Bft)
09/11/2011 00:10 8,6 C 91 % 1015,1 hPa 0,0 mm 0,0 km/h (0 Bft) S 180 0 min 0 W/m 7,2 C 8,6 C 0,0 km/h (0 Bft)
09/11/2011 00:15 8,4 C 91 % 1015,1 hPa 0,0 mm 0,0 km/h (0 Bft) S 180 0 min 0 W/m 7,0 C 8,4 C 0,0 km/h (0 Bft)
09/11/2011 00:20 8,3 C 91 % 1015,0 hPa 0,0 mm 0,0 km/h (0 Bft) S 180 0 min 0 W/m 6,9 C 8,3 C 0,0 km/h (0 Bft)
09/11/2011 00:25 8,3 C 91 % 1015,0 hPa 0,0 mm 0,0 km/h (0 Bft) S 180 0 min 0 W/m 6,9 C 8,3 C 0,0 km/h (0 Bft)
09/11/2011 00:30 8,2 C 91 % 1015,1 hPa 0,0 mm 0,0 km/h (0 Bft) S 180 0 min 0 W/m 6,8 C 8,2 C 0,0 km/h (0 Bft)
09/11/2011 00:35 8,2 C 91 % 1015,1 hPa 0,0 mm 0,0 km/h (0 Bft) S 180 0 min 0 W/m 6,8 C 8,2 C 0,0 km/h (0 Bft)
09/11/2011 00:40 8,1 C 91 % 1015,0 hPa 0,0 mm 0,0 km/h (0 Bft) S 180 0 min 0 W/m 6,7 C 8,1 C 0,0 km/h (0 Bft)
09/11/2011 00:45 8,1 C 91 % 1015,0 hPa 0,0 mm 0,0 km/h (0 Bft) S 180 0 min 0 W/m 6,7 C 8,1 C 0,0 km/h (0 Bft)
09/11/2011 00:50 8,0 C 92 % 1015,0 hPa 0,0 mm 0,0 km/h (0 Bft) S 180 0 min 0 W/m 6,8 C 8,0 C 0,0 km/h (0 Bft)
09/11/2011 00:55 7,9 C 92 % 1015,1 hPa 0,0 mm 0,0 km/h (0 Bft) S-SE 157 0 min 0 W/m 6,7 C 7,9 C 0,0 km/h (0 Bft)
09/11/2011 01:00 7,9 C 92 % 1015,1 hPa 0,0 mm 0,0 km/h (0 Bft) S-SE 157 0 min 0 W/m 6,7 C 7,9 C 0,0 km/h (0 Bft)
09/11/2011 01:05 7,9 C 92 % 1015,1 hPa 0,0 mm 0,0 km/h (0 Bft) S-SE 157 0 min 0 W/m 6,7 C 7,9 C 0,0 km/h (0 Bft)
09/11/2011 01:10 7,9 C 92 % 1015,2 hPa 0,0 mm 0,0 km/h (0 Bft) S-SE 157 0 min 0 W/m 6,7 C 7,9 C 0,0 km/h (0 Bft)
09/11/2011 01:15 7,8 C 92 % 1015,1 hPa 0,0 mm 0,0 km/h (0 Bft) S-SE 157 0 min 0 W/m 6,6 C 7,8 C 0,0 km/h (0 Bft)
09/11/2011 01:20 7,8 C 92 % 1015,0 hPa 0,0 mm 0,0 km/h (0 Bft) S-SE 157 0 min 0 W/m 6,6 C 7,8 C 0,0 km/h (0 Bft)
09/11/2011 01:25 7,8 C 92 % 1014,9 hPa 0,0 mm 0,0 km/h (0 Bft) S-SE 157 0 min 0 W/m 6,6 C 7,8 C 0,0 km/h (0 Bft)
09/11/2011 01:30 7,7 C 92 % 1014,9 hPa 0,0 mm 0,0 km/h (0 Bft) S-SE 157 0 min 0 W/m 6,5 C 7,7 C 0,0 km/h (0 Bft)
09/11/2011 01:35 7,6 C 92 % 1014,9 hPa 0,0 mm 0,0 km/h (0 Bft) S-SE 157 0 min 0 W/m 6,4 C 7,6 C 0,0 km/h (0 Bft)
09/11/2011 01:40 7,5 C 92 % 1014,9 hPa 0,0 mm 0,0 km/h (0 Bft) S-SE 157 0 min 0 W/m 6,3 C 7,5 C 0,0 km/h (0 Bft)
09/11/2011 01:45 7,5 C 92 % 1014,9 hPa 0,0 mm 0,0 km/h (0 Bft) SE 135 0 min 0 W/m 6,3 C 7,5 C 0,0 km/h (0 Bft)
09/11/2011 01:50 7,4 C 92 % 1014,8 hPa 0,0 mm 0,0 km/h (0 Bft) SE 135 0 min 0 W/m 6,2 C 7,4 C 0,0 km/h (0 Bft)
09/11/2011 01:55 7,4 C 92 % 1014,8 hPa 0,0 mm 0,4 km/h (0 Bft) SE 135 0 min 0 W/m 6,2 C 7,4 C 0,4 km/h (0 Bft)
09/11/2011 02:02 7,5 C 92 % 1014,8 hPa 0,0 mm 0,0 km/h (0 Bft) SE 135 0 min 0 W/m 6,3 C 7,5 C 0,0 km/h (0 Bft)
09/11/2011 02:05 7,4 C 92 % 1014,8 hPa 0,0 mm 0,0 km/h (0 Bft) SE 135 0 min 0 W/m 6,2 C 7,4 C 0,0 km/h (0 Bft)
09/11/2011 02:10 7,4 C 92 % 1014,8 hPa 0,0 mm 0,4 km/h (0 Bft) SE 135 0 min 0 W/m 6,2 C 7,4 C 3,2 km/h (1 Bft)
09/11/2011 02:15 7,4 C 92 % 1014,9 hPa 0,0 mm 0,0 km/h (0 Bft) SE 135 0 min 0 W/m 6,2 C 7,4 C 0,0 km/h (0 Bft)
09/11/2011 02:20 7,4 C 92 % 1014,8 hPa 0,0 mm 0,0 km/h (0 Bft) SE 135 0 min 0 W/m 6,2 C 7,4 C 0,0 km/h (0 Bft)
09/11/2011 02:25 7,4 C 92 % 1014,9 hPa 0,0 mm 0,4 km/h (0 Bft) SE 135 0 min 0 W/m 6,2 C 7,4 C 3,2 km/h (1 Bft)
09/11/2011 02:30 7,3 C 92 % 1014,9 hPa 0,0 mm 0,0 km/h (0 Bft) SE 135 0 min 0 W/m 6,1 C 7,3 C 0,0 km/h (0 Bft)
09/11/2011 02:35 7,3 C 92 % 1014,9 hPa 0,0 mm 0,0 km/h (0 Bft) SE 135 0 min 0 W/m 6,1 C 7,3 C 0,0 km/h (0 Bft)
09/11/2011 02:40 7,2 C 92 % 1014,9 hPa 0,0 mm 0,0 km/h (0 Bft) SE 135 0 min 0 W/m 6,0 C 7,2 C 0,0 km/h (0 Bft)
09/11/2011 02:45 7,2 C 92 % 1014,9 hPa 0,0 mm 0,0 km/h (0 Bft) SE 135 0 min 0 W/m 6,0 C 7,2 C 0,0 km/h (0 Bft)
09/11/2011 02:50 7,1 C 93 % 1014,9 hPa 0,0 mm 0,0 km/h (0 Bft) SE 135 0 min 0 W/m 6,0 C 7,1 C 0,0 km/h (0 Bft)
09/11/2011 02:55 7,1 C 93 % 1014,9 hPa 0,0 mm 0,0 km/h (0 Bft) SE 135 0 min 0 W/m 6,0 C 7,1 C 0,0 km/h (0 Bft)
09/11/2011 03:00 6,9 C 93 % 1015,0 hPa 0,0 mm 0,0 km/h (0 Bft) SE 135 0 min 0 W/m 5,8 C 6,9 C 0,0 km/h (0 Bft)
09/11/2011 03:05 6,9 C 93 % 1015,0 hPa 0,0 mm 0,0 km/h (0 Bft) SE 135 0 min 0 W/m 5,8 C 6,9 C 0,0 km/h (0 Bft)
09/11/2011 03:10 6,9 C 93 % 1014,9 hPa 0,0 mm 0,0 km/h (0 Bft) SE 135 0 min 0 W/m 5,8 C 6,9 C 0,0 km/h (0 Bft)
09/11/2011 03:15 6,8 C 93 % 1014,8 hPa 0,0 mm 0,0 km/h (0 Bft) SE 135 0 min 0 W/m 5,7 C 6,8 C 0,0 km/h (0 Bft)
09/11/2011 03:20 6,8 C 93 % 1014,8 hPa 0,0 mm 0,0 km/h (0 Bft) SE 135 0 min 0 W/m 5,7 C 6,8 C 0,0 km/h (0 Bft)
09/11/2011 03:25 6,8 C 93 % 1014,8 hPa 0,0 mm 0,0 km/h (0 Bft) SE 135 0 min 0 W/m 5,7 C 6,8 C 0,0 km/h (0 Bft)
09/11/2011 03:30 6,7 C 93 % 1014,8 hPa 0,0 mm 0,0 km/h (0 Bft) N 360 0 min 0 W/m 5,6 C 6,7 C 0,0 km/h (0 Bft)
09/11/2011 03:35 6,6 C 93 % 1014,8 hPa 0,0 mm 0,0 km/h (0 Bft) SE 135 0 min 0 W/m 5,6 C 6,6 C 0,0 km/h (0 Bft)
09/11/2011 03:40 6,6 C 93 % 1014,8 hPa 0,0 mm 0,4 km/h (0 Bft) E 90 0 min 0 W/m 5,6 C 6,6 C 2,9 km/h (1 Bft)
09/11/2011 03:45 6,6 C 93 % 1014,8 hPa 0,0 mm 0,0 km/h (0 Bft) E-SE 112 0 min 0 W/m 5,6 C 6,6 C 0,0 km/h (0 Bft)
09/11/2011 03:50 6,5 C 93 % 1014,8 hPa 0,0 mm 0,4 km/h (0 Bft) E-SE 112 0 min 0 W/m 5,5 C 6,5 C 0,4 km/h (0 Bft)
09/11/2011 03:55 6,5 C 93 % 1014,8 hPa 0,0 mm 0,7 km/h (0 Bft) E-SE 112 0 min 0 W/m 5,5 C 6,5 C 3,6 km/h (1 Bft)
09/11/2011 04:00 6,5 C 93 % 1014,7 hPa 0,0 mm 1,8 km/h (1 Bft) E-SE 112 0 min 0 W/m 5,5 C 6,5 C 4,0 km/h (1 Bft)
09/11/2011 04:05 6,5 C 93 % 1014,7 hPa 0,0 mm 0,0 km/h (0 Bft) E 90 0 min 0 W/m 5,5 C 6,5 C 0,0 km/h (0 Bft)
09/11/2011 04:10 6,6 C 93 % 1014,7 hPa 0,0 mm 1,4 km/h (1 Bft) E 90 0 min 0 W/m 5,6 C 6,6 C 4,3 km/h (1 Bft)
09/11/2011 04:15 6,6 C 93 % 1014,6 hPa 0,0 mm 1,8 km/h (1 Bft) E-SE 112 0 min 0 W/m 5,6 C 6,6 C 6,1 km/h (2 Bft)
09/11/2011 04:20 6,7 C 94 % 1014,7 hPa 0,0 mm 3,6 km/h (1 Bft) SE 135 0 min 0 W/m 5,8 C 6,7 C 4,0 km/h (1 Bft)
09/11/2011 04:25 6,7 C 94 % 1014,8 hPa 0,0 mm 1,1 km/h (1 Bft) SE 135 0 min 0 W/m 5,8 C 6,7 C 4,0 km/h (1 Bft)
09/11/2011 04:30 6,7 C 94 % 1014,8 hPa 0,0 mm 0,0 km/h (0 Bft) E-SE 112 0 min 0 W/m 5,8 C 6,7 C 0,0 km/h (0 Bft)
09/11/2011 04:35 6,6 C 93 % 1014,9 hPa 0,0 mm 0,0 km/h (0 Bft) E-SE 112 0 min 0 W/m 5,6 C 6,6 C 0,0 km/h (0 Bft)
09/11/2011 04:40 6,7 C 94 % 1014,8 hPa 0,0 mm 2,2 km/h (1 Bft) E-SE 112 0 min 0 W/m 5,8 C 6,7 C 4,3 km/h (1 Bft)
09/11/2011 04:45 6,7 C 94 % 1014,8 hPa 0,0 mm 2,2 km/h (1 Bft) SE 135 0 min 0 W/m 5,8 C 6,7 C 4,3 km/h (1 Bft)
09/11/2011 04:50 6,8 C 94 % 1014,8 hPa 0,0 mm 0,7 km/h (0 Bft) E 90 0 min 0 W/m 5,9 C 6,8 C 1,4 km/h (1 Bft)
09/11/2011 04:55 6,7 C 94 % 1014,7 hPa 0,0 mm 0,0 km/h (0 Bft) E-SE 112 0 min 0 W/m 5,8 C 6,7 C 0,0 km/h (0 Bft)
09/11/2011 05:00 6,6 C 93 % 1014,8 hPa 0,0 mm 0,0 km/h (0 Bft) E 90 0 min 0 W/m 5,6 C 6,6 C 1,4 km/h (1 Bft)
09/11/2011 05:05 6,6 C 93 % 1014,8 hPa 0,0 mm 3,2 km/h (1 Bft) E-SE 112 0 min 0 W/m 5,6 C 6,6 C 6,5 km/h (2 Bft)
09/11/2011 05:10 6,6 C 93 % 1014,8 hPa 0,0 mm 0,0 km/h (0 Bft) E 90 0 min 0 W/m 5,6 C 6,6 C 0,0 km/h (0 Bft)
09/11/2011 05:15 6,6 C 93 % 1014,8 hPa 0,0 mm 0,7 km/h (0 Bft) E-SE 112 0 min 0 W/m 5,6 C 6,6 C 3,2 km/h (1 Bft)
09/11/2011 05:20 6,5 C 93 % 1014,9 hPa 0,0 mm 0,0 km/h (0 Bft) E 90 0 min 0 W/m 5,5 C 6,5 C 0,0 km/h (0 Bft)
09/11/2011 05:25 6,5 C 93 % 1015,0 hPa 0,0 mm 0,0 km/h (0 Bft) E-SE 112 0 min 0 W/m 5,5 C 6,5 C 0,0 km/h (0 Bft)
09/11/2011 05:30 6,4 C 94 % 1015,0 hPa 0,0 mm 0,0 km/h (0 Bft) E-SE 112 0 min 0 W/m 5,5 C 6,4 C 3,6 km/h (1 Bft)
09/11/2011 05:35 6,4 C 93 % 1015,0 hPa 0,0 mm 0,0 km/h (0 Bft) E-SE 112 0 min 0 W/m 5,4 C 6,4 C 0,0 km/h (0 Bft)
09/11/2011 05:40 6,3 C 94 % 1015,0 hPa 0,0 mm 0,0 km/h (0 Bft) E-SE 112 0 min 0 W/m 5,4 C 6,3 C 0,0 km/h (0 Bft)
09/11/2011 05:45 6,3 C 94 % 1014,9 hPa 0,0 mm 0,0 km/h (0 Bft) E-SE 112 0 min 0 W/m 5,4 C 6,3 C 0,0 km/h (0 Bft)
09/11/2011 05:50 6,3 C 94 % 1014,9 hPa 0,0 mm 0,0 km/h (0 Bft) E-SE 112 0 min 0 W/m 5,4 C 6,3 C 0,0 km/h (0 Bft)
09/11/2011 05:55 6,2 C 94 % 1014,9 hPa 0,0 mm 0,0 km/h (0 Bft) E-SE 112 0 min 0 W/m 5,3 C 6,2 C 0,0 km/h (0 Bft)
09/11/2011 06:00 6,2 C 94 % 1014,9 hPa 0,0 mm 1,1 km/h (1 Bft) E 90 0 min 0 W/m 5,3 C 6,2 C 4,3 km/h (1 Bft)
09/11/2011 06:05 6,2 C 94 % 1014,9 hPa 0,0 mm 4,0 km/h (1 Bft) E-SE 112 0 min 0 W/m 5,3 C 6,2 C 6,5 km/h (2 Bft)
09/11/2011 06:10 6,2 C 94 % 1014,9 hPa 0,0 mm 2,9 km/h (1 Bft) E-SE 112 0 min 0 W/m 5,3 C 6,2 C 6,8 km/h (2 Bft)
09/11/2011 06:15 6,2 C 94 % 1014,9 hPa 0,0 mm 4,0 km/h (1 Bft) E 90 0 min 0 W/m 5,3 C 6,2 C 6,1 km/h (2 Bft)
09/11/2011 06:20 6,2 C 94 % 1014,9 hPa 0,0 mm 3,6 km/h (1 Bft) E 90 0 min 0 W/m 5,3 C 6,2 C 8,3 km/h (2 Bft)
09/11/2011 06:25 6,2 C 94 % 1014,9 hPa 0,0 mm 1,4 km/h (1 Bft) E-SE 112 0 min 0 W/m 5,3 C 6,2 C 3,2 km/h (1 Bft)
09/11/2011 06:30 6,1 C 94 % 1014,9 hPa 0,0 mm 3,2 km/h (1 Bft) E-SE 112 0 min 0 W/m 5,2 C 6,1 C 6,5 km/h (2 Bft)
09/11/2011 06:35 5,9 C 94 % 1015,0 hPa 0,0 mm 6,5 km/h (2 Bft) E 90 0 min 0 W/m 5,0 C 4,6 C 6,5 km/h (2 Bft)
09/11/2011 06:40 5,9 C 94 % 1014,9 hPa 0,0 mm 3,6 km/h (1 Bft) E-SE 112 0 min 0 W/m 5,0 C 5,9 C 7,2 km/h (2 Bft)
09/11/2011 06:45 6,0 C 94 % 1015,0 hPa 0,0 mm 0,0 km/h (0 Bft) E 90 0 min 0 W/m 5,1 C 6,0 C 0,0 km/h (0 Bft)
09/11/2011 06:50 6,1 C 94 % 1015,0 hPa 0,0 mm 0,7 km/h (0 Bft) E 90 0 min 0 W/m 5,2 C 6,1 C 4,3 km/h (1 Bft)
09/11/2011 06:55 6,1 C 94 % 1015,0 hPa 0,0 mm 0,0 km/h (0 Bft) SE 135 0 min 0 W/m 5,2 C 6,1 C 0,0 km/h (0 Bft)
09/11/2011 07:00 6,1 C 94 % 1015,1 hPa 0,1 mm 2,2 km/h (1 Bft) E 90 0 min 0 W/m 5,2 C 6,1 C 4,3 km/h (1 Bft)
09/11/2011 07:05 6,0 C 94 % 1015,1 hPa 0,0 mm 0,7 km/h (0 Bft) E-NE 67 0 min 0 W/m 5,1 C 6,0 C 1,4 km/h (1 Bft)
09/11/2011 07:10 6,1 C 94 % 1015,1 hPa 0,0 mm 1,1 km/h (1 Bft) E-NE 67 0 min 0 W/m 5,2 C 6,1 C 4,3 km/h (1 Bft)
09/11/2011 07:15 6,0 C 94 % 1015,2 hPa 0,0 mm 1,1 km/h (1 Bft) E 90 0 min 0 W/m 5,1 C 6,0 C 4,0 km/h (1 Bft)
09/11/2011 07:20 6,0 C 94 % 1015,2 hPa 0,0 mm 2,9 km/h (1 Bft) E-SE 112 0 min 0 W/m 5,1 C 6,0 C 4,3 km/h (1 Bft)
09/11/2011 07:25 5,9 C 94 % 1015,1 hPa 0,0 mm 1,4 km/h (1 Bft) E-SE 112 0 min 0 W/m 5,0 C 5,9 C 3,6 km/h (1 Bft)
09/11/2011 07:30 5,9 C 94 % 1015,1 hPa 0,0 mm 0,0 km/h (0 Bft) E-SE 112 0 min 0 W/m 5,0 C 5,9 C 3,2 km/h (1 Bft)
09/11/2011 07:35 5,9 C 94 % 1015,2 hPa 0,0 mm 0,0 km/h (0 Bft) SE 135 0 min 0 W/m 5,0 C 5,9 C 0,0 km/h (0 Bft)
09/11/2011 07:40 5,8 C 95 % 1015,2 hPa 0,0 mm 1,1 km/h (1 Bft) E-SE 112 0 min 0 W/m 5,1 C 5,8 C 3,6 km/h (1 Bft)
09/11/2011 07:45 5,8 C 95 % 1015,2 hPa 0,0 mm 0,7 km/h (0 Bft) E 90 0 min 0 W/m 5,1 C 5,8 C 3,6 km/h (1 Bft)
09/11/2011 07:50 5,8 C 95 % 1015,3 hPa 0,0 mm 0,0 km/h (0 Bft) E 90 0 min 0 W/m 5,1 C 5,8 C 0,0 km/h (0 Bft)
09/11/2011 07:55 5,8 C 95 % 1015,2 hPa 0,0 mm 0,0 km/h (0 Bft) E 90 0 min 0 W/m 5,1 C 5,8 C 0,0 km/h (0 Bft)
09/11/2011 08:00 5,7 C 95 % 1015,2 hPa 0,0 mm 0,0 km/h (0 Bft) E 90 0 min 0 W/m 5,0 C 5,7 C 0,0 km/h (0 Bft)
09/11/2011 08:05 5,7 C 95 % 1015,3 hPa 0,0 mm 0,0 km/h (0 Bft) E 90 0 min 0 W/m 5,0 C 5,7 C 0,0 km/h (0 Bft)
09/11/2011 08:10 5,8 C 95 % 1015,3 hPa 0,0 mm 0,0 km/h (0 Bft) E 90 0 min 0 W/m 5,1 C 5,8 C 0,0 km/h (0 Bft)
09/11/2011 08:15 5,8 C 95 % 1015,3 hPa 0,0 mm 0,0 km/h (0 Bft) E 90 0 min 0 W/m 5,1 C 5,8 C 0,0 km/h (0 Bft)
09/11/2011 08:20 5,8 C 95 % 1015,4 hPa 0,0 mm 0,0 km/h (0 Bft) E 90 0 min 0 W/m 5,1 C 5,8 C 0,0 km/h (0 Bft)
09/11/2011 08:25 5,8 C 95 % 1015,5 hPa 0,0 mm 0,0 km/h (0 Bft) E 90 0 min 0 W/m 5,1 C 5,8 C 0,0 km/h (0 Bft)
09/11/2011 08:30 5,9 C 95 % 1015,5 hPa 0,0 mm 0,0 km/h (0 Bft) E 90 0 min 0 W/m 5,2 C 5,9 C 0,0 km/h (0 Bft)
09/11/2011 08:35 6,1 C 95 % 1015,7 hPa 0,0 mm 0,0 km/h (0 Bft) E 90 0 min 0 W/m 5,4 C 6,1 C 0,0 km/h (0 Bft)
09/11/2011 08:40 6,4 C 95 % 1015,7 hPa 0,0 mm 0,0 km/h (0 Bft) E 90 0 min 0 W/m 5,7 C 6,4 C 0,0 km/h (0 Bft)
09/11/2011 08:45 6,5 C 95 % 1015,7 hPa 0,0 mm 0,0 km/h (0 Bft) E 90 0 min 0 W/m 5,8 C 6,5 C 0,0 km/h (0 Bft)
09/11/2011 08:50 6,5 C 95 % 1015,7 hPa 0,0 mm 1,1 km/h (1 Bft) E-SE 112 0 min 0 W/m 5,8 C 6,5 C 4,0 km/h (1 Bft)
09/11/2011 08:55 6,6 C 95 % 1015,7 hPa 0,0 mm 2,9 km/h (1 Bft) E-SE 112 0 min 0 W/m 5,9 C 6,6 C 7,2 km/h (2 Bft)
09/11/2011 09:00 6,8 C 95 % 1015,7 hPa 0,0 mm 2,5 km/h (1 Bft) E-SE 112 0 min 0 W/m 6,1 C 6,8 C 5,8 km/h (2 Bft)
09/11/2011 09:05 6,9 C 95 % 1015,8 hPa 0,0 mm 0,0 km/h (0 Bft) E 90 0 min 0 W/m 6,2 C 6,9 C 0,0 km/h (0 Bft)
09/11/2011 09:10 7,3 C 95 % 1015,7 hPa 0,0 mm 1,8 km/h (1 Bft) E 90 0 min 0 W/m 6,6 C 7,3 C 1,8 km/h (1 Bft)
09/11/2011 09:15 7,5 C 95 % 1015,8 hPa 0,0 mm 1,1 km/h (1 Bft) E-SE 112 0 min 0 W/m 6,8 C 7,5 C 3,6 km/h (1 Bft)
09/11/2011 09:20 7,8 C 95 % 1015,9 hPa 0,0 mm 0,0 km/h (0 Bft) E-SE 112 0 min 0 W/m 7,0 C 7,8 C 0,0 km/h (0 Bft)
09/11/2011 09:25 8,3 C 95 % 1016,1 hPa 0,0 mm 0,0 km/h (0 Bft) E-SE 112 0 min 0 W/m 7,5 C 8,3 C 0,0 km/h (0 Bft)
09/11/2011 09:30 8,8 C 95 % 1016,0 hPa 0,0 mm 0,4 km/h (0 Bft) SE 135 0 min 0 W/m 8,0 C 8,8 C 0,4 km/h (0 Bft)
09/11/2011 09:35 9,3 C 95 % 1016,1 hPa 0,0 mm 1,8 km/h (1 Bft) SE 135 0 min 0 W/m 8,5 C 9,3 C 4,3 km/h (1 Bft)
09/11/2011 09:40 9,6 C 94 % 1016,1 hPa 0,0 mm 0,7 km/h (0 Bft) E-SE 112 0 min 0 W/m 8,7 C 9,6 C 4,3 km/h (1 Bft)
09/11/2011 09:45 9,9 C 94 % 1016,1 hPa 0,0 mm 0,0 km/h (0 Bft) E-SE 112 0 min 0 W/m 9,0 C 9,9 C 0,0 km/h (0 Bft)
09/11/2011 09:50 10,3 C 93 % 1016,1 hPa 0,0 mm 0,0 km/h (0 Bft) E-SE 112 0 min 0 W/m 9,2 C 10,3 C 0,0 km/h (0 Bft)
09/11/2011 09:55 10,6 C 93 % 1016,2 hPa 0,0 mm 0,0 km/h (0 Bft) E-SE 112 0 min 0 W/m 9,5 C 10,6 C 0,0 km/h (0 Bft)
09/11/2011 10:00 10,9 C 92 % 1016,1 hPa 0,0 mm 0,0 km/h (0 Bft) E-SE 112 0 min 0 W/m 9,7 C 10,9 C 0,0 km/h (0 Bft)
09/11/2011 10:05 11,2 C 92 % 1016,1 hPa 0,0 mm 0,0 km/h (0 Bft) E-SE 112 0 min 0 W/m 9,9 C 11,2 C 0,0 km/h (0 Bft)
09/11/2011 10:10 11,6 C 92 % 1016,1 hPa 0,0 mm 1,4 km/h (1 Bft) E-SE 112 0 min 0 W/m 10,3 C 11,6 C 3,6 km/h (1 Bft)
09/11/2011 10:15 11,8 C 92 % 1016,2 hPa 0,0 mm 1,1 km/h (1 Bft) E 90 0 min 0 W/m 10,5 C 11,8 C 4,3 km/h (1 Bft)
09/11/2011 10:20 11,9 C 91 % 1016,2 hPa 0,0 mm 1,1 km/h (1 Bft) N 360 0 min 0 W/m 10,5 C 11,9 C 1,1 km/h (1 Bft)
09/11/2011 10:25 12,3 C 90 % 1016,3 hPa 0,0 mm 3,6 km/h (1 Bft) E 90 0 min 0 W/m 10,7 C 12,3 C 4,0 km/h (1 Bft)
09/11/2011 10:30 12,5 C 89 % 1016,4 hPa 0,0 mm 2,2 km/h (1 Bft) E-SE 112 0 min 0 W/m 10,7 C 12,5 C 3,2 km/h (1 Bft)
09/11/2011 10:35 12,8 C 88 % 1016,1 hPa 0,0 mm 1,4 km/h (1 Bft) E 90 0 min 0 W/m 10,9 C 12,8 C 4,3 km/h (1 Bft)
09/11/2011 10:40 13,1 C 87 % 1016,1 hPa 0,0 mm 0,0 km/h (0 Bft) E 90 0 min 0 W/m 11,0 C 13,1 C 0,0 km/h (0 Bft)
09/11/2011 10:45 13,4 C 87 % 1016,3 hPa 0,0 mm 0,0 km/h (0 Bft) E 90 0 min 0 W/m 11,3 C 13,4 C 0,0 km/h (0 Bft)
09/11/2011 10:50 13,8 C 86 % 1016,3 hPa 0,0 mm 1,4 km/h (1 Bft) E-SE 112 0 min 0 W/m 11,5 C 13,8 C 1,4 km/h (1 Bft)
09/11/2011 10:55 14,2 C 86 % 1016,3 hPa 0,0 mm 0,0 km/h (0 Bft) E-SE 112 0 min 0 W/m 11,9 C 14,2 C 0,0 km/h (0 Bft)
09/11/2011 11:00 14,5 C 86 % 1016,3 hPa 0,0 mm 0,0 km/h (0 Bft) E-SE 112 0 min 0 W/m 12,2 C 14,5 C 0,0 km/h (0 Bft)
09/11/2011 11:05 14,9 C 85 % 1016,3 hPa 0,0 mm 0,0 km/h (0 Bft) E-SE 112 0 min 0 W/m 12,4 C 14,9 C 0,0 km/h (0 Bft)
09/11/2011 11:10 15,3 C 84 % 1016,3 hPa 0,0 mm 0,0 km/h (0 Bft) E-SE 112 0 min 0 W/m 12,6 C 15,3 C 0,0 km/h (0 Bft)
09/11/2011 11:15 15,6 C 84 % 1016,3 hPa 0,0 mm 0,0 km/h (0 Bft) E-SE 112 0 min 0 W/m 12,9 C 15,6 C 0,0 km/h (0 Bft)
09/11/2011 11:20 15,9 C 83 % 1016,3 hPa 0,0 mm 0,0 km/h (0 Bft) E-SE 112 0 min 0 W/m 13,0 C 15,9 C 0,0 km/h (0 Bft)
09/11/2011 11:25 16,2 C 80 % 1016,2 hPa 0,0 mm 5,8 km/h (2 Bft) SE 135 0 min 0 W/m 12,7 C 16,2 C 11,2 km/h (2 Bft)
09/11/2011 11:30 16,4 C 77 % 1016,2 hPa 0,0 mm 2,5 km/h (1 Bft) S-SE 157 0 min 0 W/m 12,4 C 16,4 C 2,5 km/h (1 Bft)
09/11/2011 11:35 16,8 C 78 % 1016,3 hPa 0,0 mm 0,0 km/h (0 Bft) S-SE 157 0 min 0 W/m 12,9 C 16,8 C 0,0 km/h (0 Bft)
09/11/2011 11:40 17,1 C 78 % 1016,2 hPa 0,0 mm 0,0 km/h (0 Bft) S-SE 157 0 min 0 W/m 13,2 C 17,1 C 0,0 km/h (0 Bft)
09/11/2011 11:45 17,2 C 74 % 1016,2 hPa 0,0 mm 4,0 km/h (1 Bft) S-SO 202 0 min 0 W/m 12,5 C 17,2 C 6,8 km/h (2 Bft)
09/11/2011 11:50 17,5 C 72 % 1016,2 hPa 0,0 mm 3,2 km/h (1 Bft) S-SO 202 0 min 0 W/m 12,4 C 17,5 C 9,4 km/h (2 Bft)
09/11/2011 11:55 17,7 C 69 % 1016,2 hPa 0,0 mm 9,4 km/h (2 Bft) S-SO 202 0 min 0 W/m 11,9 C 17,7 C 11,5 km/h (2 Bft)
09/11/2011 12:00 17,7 C 71 % 1016,2 hPa 0,0 mm 11,2 km/h (2 Bft) S-SO 202 0 min 0 W/m 12,4 C 17,7 C 17,3 km/h (3 Bft)
09/11/2011 12:05 17,8 C 70 % 1016,3 hPa 0,0 mm 3,6 km/h (1 Bft) S-SE 157 0 min 0 W/m 12,3 C 17,8 C 4,3 km/h (1 Bft)
09/11/2011 12:10 17,9 C 70 % 1016,3 hPa 0,0 mm 5,4 km/h (2 Bft) SE 135 0 min 0 W/m 12,3 C 17,9 C 10,1 km/h (2 Bft)
09/11/2011 12:15 18,2 C 68 % 1016,4 hPa 0,0 mm 2,5 km/h (1 Bft) S-SO 202 0 min 0 W/m 12,2 C 18,2 C 6,5 km/h (2 Bft)
09/11/2011 12:20 18,3 C 68 % 1016,3 hPa 0,0 mm 8,6 km/h (2 Bft) S-SE 157 0 min 0 W/m 12,3 C 18,3 C 8,6 km/h (2 Bft)
09/11/2011 12:25 18,6 C 66 % 1016,3 hPa 0,0 mm 4,7 km/h (1 Bft) S-SE 157 0 min 0 W/m 12,1 C 18,6 C 4,7 km/h (1 Bft)
09/11/2011 12:30 18,6 C 65 % 1016,3 hPa 0,0 mm 5,0 km/h (1 Bft) S-SO 202 0 min 0 W/m 11,9 C 18,6 C 9,7 km/h (2 Bft)
09/11/2011 12:35 18,9 C 66 % 1016,3 hPa 0,0 mm 4,0 km/h (1 Bft) SO 225 0 min 0 W/m 12,4 C 18,9 C 8,6 km/h (2 Bft)
09/11/2011 12:40 19,1 C 65 % 1016,3 hPa 0,0 mm 4,3 km/h (1 Bft) S 180 0 min 0 W/m 12,4 C 19,1 C 12,6 km/h (3 Bft)
09/11/2011 12:45 19,1 C 65 % 1016,2 hPa 0,0 mm 1,4 km/h (1 Bft) S-SE 157 0 min 0 W/m 12,4 C 19,1 C 1,4 km/h (1 Bft)
09/11/2011 12:50 19,3 C 65 % 1016,4 hPa 0,0 mm 2,9 km/h (1 Bft) S-SO 202 0 min 0 W/m 12,6 C 19,3 C 4,7 km/h (1 Bft)
09/11/2011 12:55 19,5 C 65 % 1016,3 hPa 0,0 mm 2,9 km/h (1 Bft) SE 135 0 min 0 W/m 12,7 C 19,5 C 6,5 km/h (2 Bft)
09/11/2011 13:00 19,4 C 63 % 1016,3 hPa 0,0 mm 5,8 km/h (2 Bft) S 180 0 min 0 W/m 12,2 C 19,4 C 9,7 km/h (2 Bft)
09/11/2011 13:05 19,5 C 62 % 1016,3 hPa 0,0 mm 5,4 km/h (2 Bft) S-SO 202 0 min 0 W/m 12,0 C 19,5 C 9,4 km/h (2 Bft)
09/11/2011 13:10 19,6 C 62 % 1016,0 hPa 0,0 mm 2,5 km/h (1 Bft) S 180 0 min 0 W/m 12,1 C 19,6 C 6,8 km/h (2 Bft)
09/11/2011 13:15 19,6 C 60 % 1016,0 hPa 0,0 mm 7,9 km/h (2 Bft) O-SO 247 0 min 0 W/m 11,6 C 19,6 C 12,2 km/h (2 Bft)
09/11/2011 13:20 19,6 C 63 % 1015,9 hPa 0,0 mm 8,3 km/h (2 Bft) S-SE 157 0 min 0 W/m 12,4 C 19,6 C 13,0 km/h (3 Bft)
09/11/2011 13:25 19,6 C 63 % 1015,9 hPa 0,0 mm 4,3 km/h (1 Bft) SO 225 0 min 0 W/m 12,4 C 19,6 C 7,6 km/h (2 Bft)
09/11/2011 13:30 19,6 C 61 % 1016,0 hPa 0,0 mm 4,3 km/h (1 Bft) S 180 0 min 0 W/m 11,9 C 19,6 C 8,3 km/h (2 Bft)
09/11/2011 13:35 19,4 C 61 % 1016,0 hPa 0,0 mm 5,4 km/h (2 Bft) S-SO 202 0 min 0 W/m 11,7 C 19,4 C 8,6 km/h (2 Bft)
09/11/2011 13:40 19,3 C 62 % 1016,0 hPa 0,0 mm 2,9 km/h (1 Bft) S-SO 202 0 min 0 W/m 11,8 C 19,3 C 4,0 km/h (1 Bft)
09/11/2011 13:45 19,4 C 63 % 1016,1 hPa 0,0 mm 4,7 km/h (1 Bft) S-SO 202 0 min 0 W/m 12,2 C 19,4 C 6,1 km/h (2 Bft)
09/11/2011 13:50 19,5 C 63 % 1016,2 hPa 0,0 mm 2,2 km/h (1 Bft) O-SO 247 0 min 0 W/m 12,3 C 19,5 C 4,0 km/h (1 Bft)
09/11/2011 13:55 19,6 C 63 % 1016,0 hPa 0,0 mm 1,4 km/h (1 Bft) SO 225 0 min 0 W/m 12,4 C 19,6 C 4,3 km/h (1 Bft)
09/11/2011 14:00 19,8 C 64 % 1015,9 hPa 0,0 mm 2,9 km/h (1 Bft) S 180 0 min 0 W/m 12,8 C 19,8 C 6,1 km/h (2 Bft)
09/11/2011 14:05 19,8 C 60 % 1015,6 hPa 0,0 mm 4,7 km/h (1 Bft) SO 225 0 min 0 W/m 11,8 C 19,8 C 8,3 km/h (2 Bft)
09/11/2011 14:10 19,8 C 59 % 1015,6 hPa 0,0 mm 7,9 km/h (2 Bft) S 180 0 min 0 W/m 11,6 C 19,8 C 10,8 km/h (2 Bft)
09/11/2011 14:15 19,8 C 58 % 1015,4 hPa 0,0 mm 4,3 km/h (1 Bft) S-SO 202 0 min 0 W/m 11,3 C 19,8 C 8,6 km/h (2 Bft)
09/11/2011 14:20 19,8 C 56 % 1015,3 hPa 0,0 mm 7,9 km/h (2 Bft) SO 225 0 min 0 W/m 10,8 C 19,8 C 10,1 km/h (2 Bft)
09/11/2011 14:25 19,8 C 56 % 1015,3 hPa 0,0 mm 5,0 km/h (1 Bft) S-SO 202 0 min 0 W/m 10,8 C 19,8 C 5,0 km/h (1 Bft)
09/11/2011 14:30 19,8 C 55 % 1015,4 hPa 0,0 mm 7,6 km/h (2 Bft) SO 225 0 min 0 W/m 10,5 C 19,8 C 7,6 km/h (2 Bft)
09/11/2011 14:35 19,8 C 57 % 1015,3 hPa 0,0 mm 3,6 km/h (1 Bft) S-SO 202 0 min 0 W/m 11,0 C 19,8 C 7,2 km/h (2 Bft)
09/11/2011 14:40 19,8 C 56 % 1015,3 hPa 0,0 mm 3,6 km/h (1 Bft) S-SO 202 0 min 0 W/m 10,8 C 19,8 C 7,9 km/h (2 Bft)
09/11/2011 14:45 19,8 C 54 % 1015,2 hPa 0,0 mm 6,8 km/h (2 Bft) S-SO 202 0 min 0 W/m 10,2 C 19,8 C 10,1 km/h (2 Bft)
09/11/2011 14:50 19,7 C 54 % 1015,3 hPa 0,0 mm 5,8 km/h (2 Bft) SO 225 0 min 0 W/m 10,1 C 19,7 C 11,2 km/h (2 Bft)
09/11/2011 14:55 19,7 C 55 % 1015,1 hPa 0,0 mm 5,8 km/h (2 Bft) SO 225 0 min 0 W/m 10,4 C 19,7 C 5,8 km/h (2 Bft)
09/11/2011 15:00 19,7 C 55 % 1015,1 hPa 0,0 mm 3,6 km/h (1 Bft) S-SO 202 0 min 0 W/m 10,4 C 19,7 C 7,9 km/h (2 Bft)
09/11/2011 15:05 19,6 C 53 % 1015,2 hPa 0,0 mm 7,9 km/h (2 Bft) S-SO 202 0 min 0 W/m 9,8 C 19,6 C 9,7 km/h (2 Bft)
09/11/2011 15:10 19,6 C 54 % 1015,2 hPa 0,0 mm 6,5 km/h (2 Bft) S-SO 202 0 min 0 W/m 10,0 C 19,6 C 6,5 km/h (2 Bft)
09/11/2011 15:15 19,6 C 55 % 1015,2 hPa 0,0 mm 6,5 km/h (2 Bft) S 180 0 min 0 W/m 10,3 C 19,6 C 9,7 km/h (2 Bft)
09/11/2011 15:20 19,6 C 55 % 1015,2 hPa 0,0 mm 5,0 km/h (1 Bft) S 180 0 min 0 W/m 10,3 C 19,6 C 7,2 km/h (2 Bft)
09/11/2011 15:25 19,6 C 55 % 1015,3 hPa 0,0 mm 3,6 km/h (1 Bft) S-SO 202 0 min 0 W/m 10,3 C 19,6 C 7,2 km/h (2 Bft)
09/11/2011 15:30 19,7 C 54 % 1015,3 hPa 0,0 mm 4,0 km/h (1 Bft) S-SO 202 0 min 0 W/m 10,1 C 19,7 C 4,0 km/h (1 Bft)
09/11/2011 15:35 19,6 C 56 % 1015,2 hPa 0,0 mm 7,9 km/h (2 Bft) S-SE 157 0 min 0 W/m 10,6 C 19,6 C 16,6 km/h (3 Bft)
09/11/2011 15:40 19,5 C 53 % 1015,3 hPa 0,0 mm 6,5 km/h (2 Bft) S-SO 202 0 min 0 W/m 9,7 C 19,5 C 9,7 km/h (2 Bft)
09/11/2011 15:45 19,4 C 54 % 1015,3 hPa 0,0 mm 6,1 km/h (2 Bft) S-SO 202 0 min 0 W/m 9,8 C 19,4 C 10,4 km/h (2 Bft)
09/11/2011 15:50 19,4 C 55 % 1015,1 hPa 0,0 mm 4,3 km/h (1 Bft) S 180 0 min 0 W/m 10,1 C 19,4 C 4,3 km/h (1 Bft)
09/11/2011 15:55 19,3 C 55 % 1015,2 hPa 0,0 mm 7,2 km/h (2 Bft) S-SO 202 0 min 0 W/m 10,0 C 19,3 C 7,2 km/h (2 Bft)
09/11/2011 16:00 19,2 C 55 % 1015,3 hPa 0,0 mm 4,0 km/h (1 Bft) SO 225 0 min 0 W/m 9,9 C 19,2 C 7,6 km/h (2 Bft)
09/11/2011 16:05 19,1 C 56 % 1015,3 hPa 0,0 mm 5,4 km/h (2 Bft) S 180 0 min 0 W/m 10,1 C 19,1 C 8,3 km/h (2 Bft)
09/11/2011 16:10 19,1 C 57 % 1015,3 hPa 0,0 mm 5,4 km/h (2 Bft) S 180 0 min 0 W/m 10,4 C 19,1 C 8,3 km/h (2 Bft)
09/11/2011 16:15 19,0 C 57 % 1015,3 hPa 0,0 mm 4,0 km/h (1 Bft) S-SO 202 0 min 0 W/m 10,3 C 19,0 C 9,4 km/h (2 Bft)
09/11/2011 16:20 18,9 C 57 % 1015,3 hPa 0,0 mm 6,1 km/h (2 Bft) S 180 0 min 0 W/m 10,2 C 18,9 C 9,0 km/h (2 Bft)
09/11/2011 16:25 18,9 C 57 % 1015,3 hPa 0,0 mm 5,0 km/h (1 Bft) S-SO 202 0 min 0 W/m 10,2 C 18,9 C 7,6 km/h (2 Bft)
09/11/2011 16:30 18,8 C 58 % 1015,2 hPa 0,0 mm 6,5 km/h (2 Bft) S 180 0 min 0 W/m 10,4 C 18,8 C 6,5 km/h (2 Bft)
09/11/2011 16:35 18,8 C 60 % 1015,2 hPa 0,0 mm 1,8 km/h (1 Bft) S 180 0 min 0 W/m 10,9 C 18,8 C 6,1 km/h (2 Bft)
09/11/2011 16:40 18,6 C 60 % 1015,2 hPa 0,0 mm 0,4 km/h (0 Bft) S-SE 157 0 min 0 W/m 10,7 C 18,6 C 0,4 km/h (0 Bft)
09/11/2011 16:45 18,5 C 60 % 1015,2 hPa 0,0 mm 1,4 km/h (1 Bft) S-SE 157 0 min 0 W/m 10,6 C 18,5 C 2,9 km/h (1 Bft)
09/11/2011 16:50 18,4 C 61 % 1015,3 hPa 0,0 mm 0,0 km/h (0 Bft) S-SE 157 0 min 0 W/m 10,7 C 18,4 C 0,0 km/h (0 Bft)
09/11/2011 16:55 18,2 C 61 % 1015,3 hPa 0,0 mm 0,0 km/h (0 Bft) S-SE 157 0 min 0 W/m 10,6 C 18,2 C 0,0 km/h (0 Bft)
09/11/2011 17:00 18,0 C 61 % 1015,3 hPa 0,0 mm 5,0 km/h (1 Bft) S 180 0 min 0 W/m 10,4 C 18,0 C 6,1 km/h (2 Bft)
09/11/2011 17:05 17,8 C 62 % 1015,4 hPa 0,0 mm 0,0 km/h (0 Bft) S 180 0 min 0 W/m 10,4 C 17,8 C 0,0 km/h (0 Bft)
09/11/2011 17:10 17,6 C 63 % 1015,4 hPa 0,0 mm 1,1 km/h (1 Bft) S 180 0 min 0 W/m 10,5 C 17,6 C 4,3 km/h (1 Bft)
09/11/2011 17:15 17,3 C 64 % 1015,5 hPa 0,0 mm 1,4 km/h (1 Bft) S-SE 157 0 min 0 W/m 10,4 C 17,3 C 3,6 km/h (1 Bft)
09/11/2011 17:20 17,1 C 64 % 1015,5 hPa 0,0 mm 1,1 km/h (1 Bft) S-SE 157 0 min 0 W/m 10,2 C 17,1 C 1,1 km/h (1 Bft)
09/11/2011 17:25 16,9 C 65 % 1015,4 hPa 0,0 mm 2,5 km/h (1 Bft) SE 135 0 min 0 W/m 10,3 C 16,9 C 4,0 km/h (1 Bft)
09/11/2011 17:30 16,8 C 65 % 1015,6 hPa 0,0 mm 1,8 km/h (1 Bft) SE 135 0 min 0 W/m 10,2 C 16,8 C 3,6 km/h (1 Bft)
09/11/2011 17:35 16,6 C 65 % 1015,5 hPa 0,0 mm 3,6 km/h (1 Bft) S-SE 157 0 min 0 W/m 10,0 C 16,6 C 4,3 km/h (1 Bft)
09/11/2011 17:40 16,5 C 66 % 1015,6 hPa 0,0 mm 2,5 km/h (1 Bft) S-SE 157 0 min 0 W/m 10,1 C 16,5 C 3,2 km/h (1 Bft)
09/11/2011 17:45 16,3 C 66 % 1015,6 hPa 0,0 mm 0,4 km/h (0 Bft) SE 135 0 min 0 W/m 9,9 C 16,3 C 4,0 km/h (1 Bft)
09/11/2011 17:50 16,2 C 66 % 1015,6 hPa 0,0 mm 0,0 km/h (0 Bft) SE 135 0 min 0 W/m 9,8 C 16,2 C 3,2 km/h (1 Bft)
09/11/2011 17:55 16,0 C 67 % 1015,7 hPa 0,0 mm 1,4 km/h (1 Bft) SE 135 0 min 0 W/m 9,9 C 16,0 C 4,0 km/h (1 Bft)
09/11/2011 18:00 15,8 C 68 % 1015,7 hPa 0,0 mm 1,8 km/h (1 Bft) SE 135 0 min 0 W/m 9,9 C 15,8 C 4,0 km/h (1 Bft)
09/11/2011 18:05 15,8 C 69 % 1015,8 hPa 0,0 mm 2,9 km/h (1 Bft) S-SE 157 0 min 0 W/m 10,1 C 15,8 C 4,7 km/h (1 Bft)
09/11/2011 18:10 15,6 C 69 % 1015,7 hPa 0,0 mm 0,0 km/h (0 Bft) S-SE 157 0 min 0 W/m 9,9 C 15,6 C 0,0 km/h (0 Bft)
09/11/2011 18:15 15,4 C 69 % 1015,9 hPa 0,0 mm 0,0 km/h (0 Bft) S-SE 157 0 min 0 W/m 9,7 C 15,4 C 0,0 km/h (0 Bft)
09/11/2011 18:20 15,1 C 70 % 1015,9 hPa 0,0 mm 0,0 km/h (0 Bft) S-SE 157 0 min 0 W/m 9,7 C 15,1 C 0,0 km/h (0 Bft)
09/11/2011 18:25 14,8 C 70 % 1015,8 hPa 0,0 mm 0,0 km/h (0 Bft) S-SE 157 0 min 0 W/m 9,4 C 14,8 C 0,0 km/h (0 Bft)
09/11/2011 18:30 14,6 C 71 % 1015,8 hPa 0,0 mm 0,4 km/h (0 Bft) S-SE 157 0 min 0 W/m 9,4 C 14,6 C 3,6 km/h (1 Bft)
09/11/2011 18:35 14,4 C 71 % 1015,7 hPa 0,0 mm 0,0 km/h (0 Bft) SE 135 0 min 0 W/m 9,2 C 14,4 C 0,0 km/h (0 Bft)
09/11/2011 18:40 14,1 C 72 % 1015,8 hPa 0,0 mm 0,0 km/h (0 Bft) SE 135 0 min 0 W/m 9,1 C 14,1 C 0,0 km/h (0 Bft)
09/11/2011 18:45 13,8 C 73 % 1015,7 hPa 0,0 mm 0,0 km/h (0 Bft) SE 135 0 min 0 W/m 9,0 C 13,8 C 0,0 km/h (0 Bft)
09/11/2011 18:50 13,8 C 73 % 1015,7 hPa 0,0 mm 0,4 km/h (0 Bft) SE 135 0 min 0 W/m 9,0 C 13,8 C 0,4 km/h (0 Bft)
09/11/2011 18:55 13,6 C 74 % 1015,7 hPa 0,0 mm 0,4 km/h (0 Bft) SE 135 0 min 0 W/m 9,1 C 13,6 C 0,4 km/h (0 Bft)
09/11/2011 19:00 13,6 C 75 % 1015,9 hPa 0,0 mm 0,0 km/h (0 Bft) E-SE 112 0 min 0 W/m 9,3 C 13,6 C 0,0 km/h (0 Bft)
09/11/2011 19:05 13,5 C 75 % 1015,9 hPa 0,0 mm 0,0 km/h (0 Bft) E-SE 112 0 min 0 W/m 9,2 C 13,5 C 0,0 km/h (0 Bft)
09/11/2011 19:10 13,3 C 76 % 1015,8 hPa 0,0 mm 0,0 km/h (0 Bft) E-SE 112 0 min 0 W/m 9,2 C 13,3 C 0,0 km/h (0 Bft)
09/11/2011 19:15 13,1 C 76 % 1015,9 hPa 0,0 mm 0,0 km/h (0 Bft) E-SE 112 0 min 0 W/m 9,0 C 13,1 C 0,0 km/h (0 Bft)
09/11/2011 19:20 12,8 C 76 % 1016,0 hPa 0,0 mm 0,0 km/h (0 Bft) E-SE 112 0 min 0 W/m 8,7 C 12,8 C 0,0 km/h (0 Bft)
09/11/2011 19:25 12,6 C 76 % 1016,0 hPa 0,0 mm 0,0 km/h (0 Bft) E-SE 112 0 min 0 W/m 8,5 C 12,6 C 0,0 km/h (0 Bft)
09/11/2011 19:30 12,4 C 77 % 1016,0 hPa 0,0 mm 0,0 km/h (0 Bft) E-SE 112 0 min 0 W/m 8,5 C 12,4 C 0,0 km/h (0 Bft)
09/11/2011 19:35 12,1 C 78 % 1016,0 hPa 0,0 mm 0,0 km/h (0 Bft) E-SE 112 0 min 0 W/m 8,4 C 12,1 C 0,0 km/h (0 Bft)
09/11/2011 19:40 11,9 C 78 % 1016,0 hPa 0,0 mm 0,0 km/h (0 Bft) E-SE 112 0 min 0 W/m 8,2 C 11,9 C 0,0 km/h (0 Bft)
09/11/2011 19:45 11,8 C 79 % 1016,0 hPa 0,0 mm 0,0 km/h (0 Bft) E-SE 112 0 min 0 W/m 8,3 C 11,8 C 0,0 km/h (0 Bft)
09/11/2011 19:50 11,6 C 79 % 1015,8 hPa 0,0 mm 0,0 km/h (0 Bft) E-SE 112 0 min 0 W/m 8,1 C 11,6 C 0,0 km/h (0 Bft)
09/11/2011 19:55 11,4 C 80 % 1015,8 hPa 0,0 mm 0,0 km/h (0 Bft) E-SE 112 0 min 0 W/m 8,1 C 11,4 C 0,0 km/h (0 Bft)
09/11/2011 20:00 11,4 C 80 % 1015,9 hPa 0,0 mm 0,0 km/h (0 Bft) E-SE 112 0 min 0 W/m 8,1 C 11,4 C 0,0 km/h (0 Bft)
09/11/2011 20:05 11,3 C 80 % 1015,9 hPa 0,0 mm 0,0 km/h (0 Bft) E-SE 112 0 min 0 W/m 8,0 C 11,3 C 0,0 km/h (0 Bft)
09/11/2011 20:10 11,2 C 80 % 1016,0 hPa 0,0 mm 0,0 km/h (0 Bft) E-SE 112 0 min 0 W/m 7,9 C 11,2 C 0,0 km/h (0 Bft)
09/11/2011 20:15 11,1 C 81 % 1016,0 hPa 0,0 mm 0,0 km/h (0 Bft) E-SE 112 0 min 0 W/m 8,0 C 11,1 C 0,0 km/h (0 Bft)
09/11/2011 20:20 10,8 C 82 % 1016,1 hPa 0,0 mm 0,0 km/h (0 Bft) E-SE 112 0 min 0 W/m 7,9 C 10,8 C 0,0 km/h (0 Bft)
09/11/2011 20:25 10,7 C 82 % 1016,0 hPa 0,0 mm 0,0 km/h (0 Bft) E-SE 112 0 min 0 W/m 7,8 C 10,7 C 0,0 km/h (0 Bft)
09/11/2011 20:30 10,7 C 83 % 1016,0 hPa 0,0 mm 0,7 km/h (0 Bft) E-SE 112 0 min 0 W/m 7,9 C 10,7 C 3,6 km/h (1 Bft)
09/11/2011 20:35 10,8 C 83 % 1015,9 hPa 0,0 mm 0,7 km/h (0 Bft) E-SE 112 0 min 0 W/m 8,0 C 10,8 C 3,6 km/h (1 Bft)
09/11/2011 20:40 10,9 C 84 % 1015,9 hPa 0,0 mm 0,0 km/h (0 Bft) E-SE 112 0 min 0 W/m 8,3 C 10,9 C 0,0 km/h (0 Bft)
09/11/2011 20:45 11,0 C 84 % 1016,0 hPa 0,0 mm 0,0 km/h (0 Bft) E-SE 112 0 min 0 W/m 8,4 C 11,0 C 0,0 km/h (0 Bft)
09/11/2011 20:50 11,1 C 84 % 1015,9 hPa 0,0 mm 2,5 km/h (1 Bft) E-SE 112 0 min 0 W/m 8,5 C 11,1 C 4,0 km/h (1 Bft)
09/11/2011 20:55 11,1 C 84 % 1016,0 hPa 0,0 mm 1,8 km/h (1 Bft) E-SE 112 0 min 0 W/m 8,5 C 11,1 C 4,3 km/h (1 Bft)
09/11/2011 21:00 11,1 C 84 % 1016,0 hPa 0,0 mm 1,1 km/h (1 Bft) E-NE 67 0 min 0 W/m 8,5 C 11,1 C 4,0 km/h (1 Bft)
09/11/2011 21:05 11,1 C 84 % 1016,0 hPa 0,0 mm 0,4 km/h (0 Bft) E 90 0 min 0 W/m 8,5 C 11,1 C 4,3 km/h (1 Bft)
09/11/2011 21:10 11,1 C 84 % 1016,0 hPa 0,0 mm 0,4 km/h (0 Bft) E 90 0 min 0 W/m 8,5 C 11,1 C 3,2 km/h (1 Bft)
09/11/2011 21:15 11,1 C 85 % 1016,0 hPa 0,0 mm 1,1 km/h (1 Bft) E 90 0 min 0 W/m 8,7 C 11,1 C 3,2 km/h (1 Bft)
09/11/2011 21:20 11,1 C 85 % 1016,0 hPa 0,0 mm 1,8 km/h (1 Bft) SE 135 0 min 0 W/m 8,7 C 11,1 C 3,2 km/h (1 Bft)
09/11/2011 21:25 11,1 C 85 % 1016,1 hPa 0,0 mm 1,1 km/h (1 Bft) E 90 0 min 0 W/m 8,7 C 11,1 C 3,2 km/h (1 Bft)
09/11/2011 21:30 11,2 C 85 % 1016,1 hPa 0,0 mm 4,3 km/h (1 Bft) E-SE 112 0 min 0 W/m 8,8 C 11,2 C 6,8 km/h (2 Bft)
09/11/2011 21:35 11,2 C 85 % 1016,1 hPa 0,0 mm 2,9 km/h (1 Bft) E-SE 112 0 min 0 W/m 8,8 C 11,2 C 6,1 km/h (2 Bft)
09/11/2011 21:40 11,1 C 85 % 1016,2 hPa 0,0 mm 3,2 km/h (1 Bft) E-SE 112 0 min 0 W/m 8,7 C 11,1 C 3,6 km/h (1 Bft)
09/11/2011 21:45 11,1 C 86 % 1016,1 hPa 0,0 mm 2,2 km/h (1 Bft) E 90 0 min 0 W/m 8,8 C 11,1 C 4,3 km/h (1 Bft)
09/11/2011 21:50 10,9 C 86 % 1016,2 hPa 0,0 mm 0,4 km/h (0 Bft) E-SE 112 0 min 0 W/m 8,7 C 10,9 C 3,6 km/h (1 Bft)
09/11/2011 21:55 10,9 C 86 % 1016,1 hPa 0,0 mm 1,1 km/h (1 Bft) E 90 0 min 0 W/m 8,7 C 10,9 C 3,6 km/h (1 Bft)
09/11/2011 22:00 10,8 C 86 % 1016,1 hPa 0,0 mm 3,2 km/h (1 Bft) E 90 0 min 0 W/m 8,6 C 10,8 C 5,8 km/h (2 Bft)
09/11/2011 22:05 10,7 C 86 % 1016,1 hPa 0,0 mm 1,1 km/h (1 Bft) E-SE 112 0 min 0 W/m 8,5 C 10,7 C 3,2 km/h (1 Bft)
09/11/2011 22:10 10,6 C 86 % 1016,1 hPa 0,0 mm 2,2 km/h (1 Bft) E 90 0 min 0 W/m 8,4 C 10,6 C 4,3 km/h (1 Bft)
09/11/2011 22:15 10,6 C 86 % 1016,0 hPa 0,0 mm 2,5 km/h (1 Bft) E-NE 67 0 min 0 W/m 8,4 C 10,6 C 6,5 km/h (2 Bft)
09/11/2011 22:20 10,4 C 86 % 1016,2 hPa 0,0 mm 3,2 km/h (1 Bft) E-SE 112 0 min 0 W/m 8,2 C 10,4 C 4,0 km/h (1 Bft)
09/11/2011 22:25 10,3 C 86 % 1016,2 hPa 0,0 mm 1,8 km/h (1 Bft) E 90 0 min 0 W/m 8,1 C 10,3 C 4,3 km/h (1 Bft)
09/11/2011 22:30 10,3 C 87 % 1016,1 hPa 0,0 mm 3,2 km/h (1 Bft) E-SE 112 0 min 0 W/m 8,2 C 10,3 C 3,2 km/h (1 Bft)
09/11/2011 22:35 10,3 C 87 % 1016,1 hPa 0,0 mm 1,4 km/h (1 Bft) E-SE 112 0 min 0 W/m 8,2 C 10,3 C 1,4 km/h (1 Bft)
09/11/2011 22:40 10,3 C 87 % 1016,2 hPa 0,0 mm 2,2 km/h (1 Bft) E-SE 112 0 min 0 W/m 8,2 C 10,3 C 4,0 km/h (1 Bft)
09/11/2011 22:45 10,3 C 87 % 1016,2 hPa 0,0 mm 4,3 km/h (1 Bft) E-SE 112 0 min 0 W/m 8,2 C 10,3 C 7,2 km/h (2 Bft)
09/11/2011 22:50 10,4 C 87 % 1016,2 hPa 0,0 mm 4,0 km/h (1 Bft) SE 135 0 min 0 W/m 8,3 C 10,4 C 7,9 km/h (2 Bft)
09/11/2011 22:55 10,6 C 87 % 1016,2 hPa 0,0 mm 1,4 km/h (1 Bft) E-SE 112 0 min 0 W/m 8,5 C 10,6 C 4,0 km/h (1 Bft)
09/11/2011 23:00 10,6 C 87 % 1016,2 hPa 0,0 mm 2,2 km/h (1 Bft) SE 135 0 min 0 W/m 8,5 C 10,6 C 4,3 km/h (1 Bft)
09/11/2011 23:05 10,8 C 87 % 1016,1 hPa 0,0 mm 2,2 km/h (1 Bft) E-SE 112 0 min 0 W/m 8,7 C 10,8 C 3,6 km/h (1 Bft)
09/11/2011 23:10 10,8 C 87 % 1016,2 hPa 0,0 mm 0,4 km/h (0 Bft) E-SE 112 0 min 0 W/m 8,7 C 10,8 C 3,2 km/h (1 Bft)
09/11/2011 23:15 10,6 C 87 % 1016,1 hPa 0,0 mm 0,4 km/h (0 Bft) E-SE 112 0 min 0 W/m 8,5 C 10,6 C 3,6 km/h (1 Bft)
09/11/2011 23:20 10,5 C 86 % 1016,0 hPa 0,0 mm 0,0 km/h (0 Bft) E-SE 112 0 min 0 W/m 8,3 C 10,5 C 3,2 km/h (1 Bft)
09/11/2011 23:25 10,3 C 86 % 1016,0 hPa 0,0 mm 4,7 km/h (1 Bft) E 90 0 min 0 W/m 8,1 C 10,3 C 9,4 km/h (2 Bft)
09/11/2011 23:30 10,1 C 87 % 1016,0 hPa 0,0 mm 3,2 km/h (1 Bft) E 90 0 min 0 W/m 8,0 C 10,1 C 4,0 km/h (1 Bft)
09/11/2011 23:35 9,9 C 87 % 1015,8 hPa 0,0 mm 3,2 km/h (1 Bft) E 90 0 min 0 W/m 7,8 C 9,9 C 4,0 km/h (1 Bft)
09/11/2011 23:40 9,8 C 87 % 1015,8 hPa 0,0 mm 4,0 km/h (1 Bft) E-SE 112 0 min 0 W/m 7,7 C 9,8 C 4,3 km/h (1 Bft)
09/11/2011 23:45 9,8 C 87 % 1015,8 hPa 0,0 mm 0,0 km/h (0 Bft) E 90 0 min 0 W/m 7,7 C 9,8 C 0,0 km/h (0 Bft)
09/11/2011 23:50 9,7 C 88 % 1015,8 hPa 0,0 mm 2,2 km/h (1 Bft) E 90 0 min 0 W/m 7,8 C 9,7 C 2,9 km/h (1 Bft)
09/11/2011 23:55 9,7 C 88 % 1015,7 hPa 0,0 mm 2,5 km/h (1 Bft) E-SE 112 0 min 0 W/m 7,8 C 9,7 C 8,3 km/h (2 Bft)
_ Min-Heure 08:05 15:40 04:15 - 23:45 - - - - 08:05 06:35 23:45
Minimum _ 5,7 C 53 % 1014,6 hPa - 0,0 km/h (0 Bft) - - - - 5,0 C 4,6 C 0,0 km/h (0 Bft)
_ Max-Heure 14:45 09:35 12:50 07:00 12:00 - - 23:55 23:55 11:40 14:45 12:00
Maximum _ 19,8 C 95 % 1016,4 hPa 0,1 mm 11,2 km/h
S-SO (2 Bft)
- - 0 min 0 W/m 13,2 C 19,8 C 17,3 km/h
S-SO (3 Bft)
Moyenne _ 11,7 C 81 % 1015,5 hPa #0,1 mm 1,8 km/h (1 Bft) E-SE - #0 min. 0 W/m 8,4 C 11,7 C 3,2 km/h (1 Bft)
Saint Bonnet de Bellac- Haute Vienne - France